WetterOnline ( http://www.wetteronline.at )

Wetter aktuell Freiburg

Aktuelles Wetter: Freiburg/Flugplatz (236m)

6-stündlich | Neueste Meldungen
Ortszeit Temperatur Wetter
Mi, 20.02. 7:00 2.1° C wolkig
Mi, 20.02. 1:00 3.1° C bewölkt
Di, 19.02. 19:00 9.8° C bedeckt
Di, 19.02. 13:00 12.2° C wolkig
Di, 19.02. 7:00 9.4° C wolkig
Di, 19.02. 1:00 9.2° C fast wolkenlos
Mo, 18.02. 19:00 9.4° C wolkig
Mo, 18.02. 13:00 15.1° C wolkenlos
Ortszeit Temperatur Wetter
Mi, 20.02. 12:00 9.8° C bedeckt
Mi, 20.02. 11:50 9.8° C bedeckt
Mi, 20.02. 11:40 9.4° C bewölkt
Mi, 20.02. 11:30 8.7° C leicht bewölkt
Mi, 20.02. 11:20 8.7° C leicht bewölkt
Mi, 20.02. 11:10 8.7° C leicht bewölkt
Mi, 20.02. 11:00 9.0° C leicht bewölkt
Mi, 20.02. 10:30 7.3° C leicht bewölkt
Mi, 20.02. 10:00 7.6° C leicht bewölkt
Mi, 20.02. 9:30 5.5° C fast wolkenlos
Mi, 20.02. 9:00 3.1° C leicht bewölkt
Ortszeit Relative Feuchte Sichtweite
Mi, 20.02. 7:00 95% 6 km
Mi, 20.02. 1:00 93% 6 km
Di, 19.02. 19:00 68% 22 km
Di, 19.02. 13:00 51% 40 km
Di, 19.02. 7:00 54% 55 km
Di, 19.02. 1:00 53% 55 km
Mo, 18.02. 19:00 61% 30 km
Mo, 18.02. 13:00 35% 45 km
Ortszeit Relative Feuchte Sichtweite
Mi, 20.02. 12:00 70% 9 km
Mi, 20.02. 11:50 70% -
Mi, 20.02. 11:40 70% -
Mi, 20.02. 11:30 72% 8 km
Mi, 20.02. 11:20 72% -
Mi, 20.02. 11:10 70% -
Mi, 20.02. 11:00 72% 8 km
Mi, 20.02. 10:30 77% 6 km
Mi, 20.02. 10:00 77% 8 km
Mi, 20.02. 9:30 85% 6 km
Mi, 20.02. 9:00 90% 5.0 km
Ortszeit Niederschlagsmenge Niederschlagsart
Mi, 20.02. 7:00 0.0 l/m2 in 12 Std. -
Mi, 20.02. 1:00 0.0 l/m2 in 6 Std. -
Di, 19.02. 19:00 0.0 l/m2 in 12 Std. -
Di, 19.02. 13:00 0.0 l/m2 in 6 Std. -
Di, 19.02. 7:00 0.0 l/m2 in 12 Std. -
Di, 19.02. 1:00 0.0 l/m2 in 6 Std. -
Mo, 18.02. 19:00 0.0 l/m2 in 12 Std. -
Mo, 18.02. 13:00 0.0 l/m2 in 6 Std. -
Ortszeit Niederschlagsmenge Niederschlagsart
Mi, 20.02. 12:00 0.0 l/m2 in 1 Std. -
Mi, 20.02. 11:50 keine Meldung -
Mi, 20.02. 11:40 keine Meldung -
Mi, 20.02. 11:30 0.0 l/m2 in 1 Std. -
Mi, 20.02. 11:20 keine Meldung -
Mi, 20.02. 11:10 keine Meldung -
Mi, 20.02. 11:00 0.0 l/m2 in 1 Std. -
Mi, 20.02. 10:30 0.0 l/m2 in 1 Std. -
Mi, 20.02. 10:00 0.0 l/m2 in 1 Std. -
Mi, 20.02. 9:30 0.0 l/m2 in 1 Std. -
Mi, 20.02. 9:00 0.0 l/m2 in 1 Std. -
Ortszeit Stärke Spitze Richtung
km/h Bft. km/h Grad Sektor
Mi, 20.02. 7:00 4 1 11 170° S
Mi, 20.02. 1:00 4 1 11 340° N
Di, 19.02. 19:00 6 1 31 20° N
Di, 19.02. 13:00 22 4 36 230° SW
Di, 19.02. 7:00 20 4 35 210° SW
Di, 19.02. 1:00 13 3 26 190° S
Mo, 18.02. 19:00 4 1 18 230° SW
Mo, 18.02. 13:00 4 1 11 260° W
Ortszeit Stärke Spitze Richtung
km/h Bft. km/h Grad Sektor
Mi, 20.02. 12:00 7 2 11 80° O
Mi, 20.02. 11:50 7 2 - 80° O
Mi, 20.02. 11:40 7 2 - 70° O
Mi, 20.02. 11:30 4 1 7 40° NO
Mi, 20.02. 11:20 4 1 - 40° NO
Mi, 20.02. 11:10 4 1 - 10° N
Mi, 20.02. 11:00 2 1 6 200° S
Mi, 20.02. 10:30 0 0 4 - -
Mi, 20.02. 10:00 0 0 4 - -
Mi, 20.02. 9:30 0 0 4 - -
Mi, 20.02. 9:00 0 0 4 - -
Ortszeit Untergrenze Bedeckung Gattung
total tief tief mittel hoch
Mi, 20.02. 7:00 9000 m 8/8 0/8 - - -
Mi, 20.02. 1:00 1200 m 8/8 7/8 - - -
Di, 19.02. 19:00 1140 m 8/8 8/8 - - -
Di, 19.02. 13:00 2100 m 7/8 3/8 - - -
Di, 19.02. 7:00 1800 m 7/8 1/8 - - -
Di, 19.02. 1:00 10500 m 2/8 0/8 - - -
Mo, 18.02. 19:00 7800 m 8/8 0/8 - - -
Mo, 18.02. 13:00 - 0/8 0/8 - - -
Ortszeit Bedeckungsgrad in Achtel und Wolkenuntergrenze
Mi, 20.02. 12:00 8(1140m)
Mi, 20.02. 11:50 8(1140m)
Mi, 20.02. 11:40 7(1140m)
Mi, 20.02. 11:30 2(1200m) 4(10500m)
Mi, 20.02. 11:20 2(1200m) 4(10500m)
Mi, 20.02. 11:10 3(10500m)
Mi, 20.02. 11:00 1(1200m) 6(10500m)
Mi, 20.02. 10:30 1(1200m) 3(10500m)
Mi, 20.02. 10:00 1(10500m) 3(10500m)
Mi, 20.02. 9:30 1(1320m) 3(10500m)
Mi, 20.02. 9:00 2(1320m) 4(8700m) 5(10500m)
Ortszeit Luftdruck NN (hPa) Tendenz (hPa in 3 Std.)
Mi, 20.02. 7:00 1025 + 0,5
Mi, 20.02. 1:00 1024 + 0,2
Di, 19.02. 19:00 1023 + 1,2
Di, 19.02. 13:00 1022 + 0,3
Di, 19.02. 7:00 1021 + 0,4
Di, 19.02. 1:00 1021 + 0,1
Mo, 18.02. 19:00 1020 + 0,5
Mo, 18.02. 13:00 1020 - 1,9
Ortszeit Luftdruck NN (hPa) Tendenz (hPa in 3 Std.)
Mi, 20.02. 12:00 1026 + 0,8
Mi, 20.02. 11:50 1026 keine Meldung
Mi, 20.02. 11:40 1026 keine Meldung
Mi, 20.02. 11:30 1026 + 0,6
Mi, 20.02. 11:20 1026 keine Meldung
Mi, 20.02. 11:10 1026 keine Meldung
Mi, 20.02. 11:00 1025 + 0,6
Mi, 20.02. 10:30 1026 + 1,0
Mi, 20.02. 10:00 1025 + 1,1
Mi, 20.02. 9:30 1026 + 1,2
Mi, 20.02. 9:00 1026 + 1,1
Ortszeit Schneehöhe (cm)
Mi, 20.02. 7:00 0
Mi, 20.02. 1:00 0
Di, 19.02. 19:00 0
Di, 19.02. 13:00 0
Di, 19.02. 7:00 0
Di, 19.02. 1:00 0
Mo, 18.02. 19:00 0
Mo, 18.02. 13:00 0
Ortszeit Schneehöhe (cm)
Mi, 20.02. 12:00 0
Mi, 20.02. 11:50 0
Mi, 20.02. 11:40 0
Mi, 20.02. 11:30 0
Mi, 20.02. 11:20 0
Mi, 20.02. 11:10 0
Mi, 20.02. 11:00 0
Mi, 20.02. 10:30 0
Mi, 20.02. 10:00 0
Mi, 20.02. 9:30 0
Mi, 20.02. 9:00 0
Link zu dieser Seite / Seite empfehlen

Das Wetter in ...